Location: Bottens
(46.6171°N, 6.6605°E)
Time: 11:54:52
(UTC+00:00)

ATLAS 5 CENTAUR R/B - Pass Details

Date: 02 November 2021
Orbit: 497 x 1159 km, 63.4° (Epoch: 25 November)

Event Time Altitude Azimuth Distance (km) Brightness Sun altitude
Rises 16:39:25 0° 282° (WNW) 2,717 6.1 -4.6°
Reaches altitude 10° 16:42:29 10° 309° (NW) 1,918 4.6 -5.1°
Maximum altitude 16:44:50 14° 342° (NNW) 1,739 3.9 -5.5°
Drops below altitude 10° 16:47:22 10° 15° (NNE) 2,103 4.0 -5.9°
Enters shadow 16:50:38 - 38° (NE) 3,052 4.6 -6.4°
